Estación de Tara INIA

Ultimos registro cada 15 minutos 29
Estación Fecha / Hora Temperatura Humedad Lluvia Velocidad Dirección Radiación Presion
29 Tara INIA 09-05-2026 07:00 3,3 94,9 0 0 0 0 1012
28 Tara INIA 09-05-2026 06:45 3,1 95,7 0 0 0 0 1012
27 Tara INIA 09-05-2026 06:30 2,8 96,3 0 0 0 0 1012
26 Tara INIA 09-05-2026 06:15 3,6 94,2 0 0 0 0 1012
25 Tara INIA 09-05-2026 06:00 3,4 95,7 0 0 0 0 1012
24 Tara INIA 09-05-2026 05:45 3 96,4 0 0 0 0 1012
23 Tara INIA 09-05-2026 05:30 3,7 92,5 0 0 0 0 1012
22 Tara INIA 09-05-2026 05:15 2,5 97,8 0 0 0 0 1012
21 Tara INIA 09-05-2026 05:00 2,6 95 0 0,3 39 0 1012
20 Tara INIA 09-05-2026 04:45 2,5 96,6 0 0,3 41 0 1012
19 Tara INIA 09-05-2026 04:30 3,2 93,6 0 0 0 0 1012
18 Tara INIA 09-05-2026 04:15 3,6 93,7 0 0 0 0 1012
17 Tara INIA 09-05-2026 04:00 3,6 93,4 0 0 0 0 1012
16 Tara INIA 09-05-2026 03:45 3,6 92,2 0 0 0 0 1012
15 Tara INIA 09-05-2026 03:30 4,4 89,5 0 0 0 0 1013
14 Tara INIA 09-05-2026 03:15 4,3 89,9 0 0 0 0 1013
13 Tara INIA 09-05-2026 03:00 4,2 90,2 0 0 0 0 1013
12 Tara INIA 09-05-2026 02:45 4 92,1 0 0 0 0 1013
11 Tara INIA 09-05-2026 02:30 4 91,6 0 0 0 0 1013
10 Tara INIA 09-05-2026 02:15 4,4 90,6 0 0 0 0 1013
9 Tara INIA 09-05-2026 02:00 3,6 95 0 0 0 0 1013
8 Tara INIA 09-05-2026 01:45 3,4 94,1 0 0 0 0 1013
7 Tara INIA 09-05-2026 01:30 3,2 94,4 0 0,2 20 0 1013
6 Tara INIA 09-05-2026 01:15 3,6 93,8 0 0,8 243 0 1013
5 Tara INIA 09-05-2026 01:00 4 91,7 0 0,3 242 0 1013
4 Tara INIA 09-05-2026 00:45 4 92,4 0 0 0 0 1013
3 Tara INIA 09-05-2026 00:30 4,6 88,9 0 0 0 0 1013
2 Tara INIA 09-05-2026 00:15 4,5 89,7 0 0 0 0 1013
1 Tara INIA 09-05-2026 00:00 4,8 90 0 0 0 0 1013